Location: Kitchener-Waterloo
(43.4500°N, 80.5000°W)
Time: 14:15:24
(UTC-04:00)

ISS - All Passes

Search period start: 30 August 2014 00:00
Search period end: 09 September 2014 00:00
Orbit: 414 x 419 km, 51.6° (Epoch: 30 August)

Date Brightness Start Highest point End Pass type
(mag) Time Alt. Az. Time Alt. Az. Time Alt. Az.
30 Aug - 10:37:41 10° S 10:39:52 17° SE 10:42:04 10° E daylight
30 Aug - 12:12:58 10° WSW 12:16:16 69° NNW 12:19:36 10° NE daylight
30 Aug - 13:50:45 10° WNW 13:53:27 22° N 13:56:09 10° NE daylight
30 Aug - 15:28:19 10° NW 15:30:59 22° N 15:33:39 10° ENE daylight
30 Aug - 17:04:54 10° NW 17:08:12 60° NNE 17:11:30 10° ESE daylight
30 Aug - 18:42:13 10° W 18:44:40 19° SW 18:47:07 10° S daylight
31 Aug - 11:24:27 10° SW 11:27:46 74° SE 11:31:06 10° ENE daylight
31 Aug - 13:01:53 10° WNW 13:04:46 26° NNW 13:07:39 10° NE daylight
31 Aug - 14:39:43 10° NW 14:42:16 20° N 14:44:49 10° NE daylight
31 Aug - 16:16:26 10° NW 16:19:37 40° NNE 16:22:48 10° E daylight
31 Aug - 17:53:18 10° WNW 17:56:18 32° SW 17:59:18 10° SSE daylight
01 Sep - 10:36:08 10° SSW 10:39:17 43° SE 10:42:28 10° ENE daylight
01 Sep - 12:13:01 10° W 12:16:05 34° NNW 12:19:10 10° NE daylight
01 Sep - 13:51:00 10° NW 13:53:31 19° N 13:56:02 10° NE daylight
01 Sep - 15:27:58 10° NW 15:30:58 30° NNE 15:33:58 10° E daylight
01 Sep - 17:04:35 10° WNW 17:07:51 55° SW 17:11:07 10° SE daylight
02 Sep - 09:48:03 10° SSW 09:50:51 25° SE 09:53:39 10° E daylight
02 Sep - 11:24:12 10° WSW 11:27:26 47° NNW 11:30:41 10° NE daylight
02 Sep - 13:02:09 10° WNW 13:04:44 20° N 13:07:19 10° NE daylight
02 Sep - 14:39:26 10° NW 14:42:15 24° NNE 14:45:03 10° ENE daylight
02 Sep - 16:15:59 10° WNW 16:19:19 89° NNE 16:22:39 10° ESE daylight
02 Sep - 17:54:08 10° WSW 17:55:36 12° SW 17:57:02 10° SSW daylight
03 Sep - 09:00:25 10° S 09:02:26 15° SE 09:04:28 10° E daylight
03 Sep - 10:35:29 10° WSW 10:38:48 74° NNW 10:42:08 10° NE daylight
03 Sep - 12:13:13 10° WNW 12:15:56 23° NNW 12:18:41 10° NE daylight
03 Sep - 13:50:50 10° NW 13:53:28 21° N 13:56:06 10° ENE daylight
03 Sep - 15:27:25 10° NW 15:30:42 56° NNE 15:33:59 10° ESE daylight
03 Sep - 17:04:38 10° W 17:07:12 21° SW 17:09:45 10° S daylight
04 Sep - 09:46:53 10° SW 09:50:12 68° SE 09:53:31 10° ENE daylight
04 Sep - 11:24:14 10° WNW 11:27:09 27° NNW 11:30:05 10° NE daylight
04 Sep - 13:02:06 10° NW 13:04:38 20° N 13:07:10 10° NE daylight
04 Sep - 14:38:51 10° NW 14:42:00 38° NNE 14:45:09 10° E daylight
04 Sep - 16:15:39 10° WNW 16:18:43 34° SW 16:21:46 10° SSE daylight
05 Sep - 08:58:30 10° SSW 09:01:37 39° SE 09:04:45 10° ENE daylight
05 Sep - 10:35:16 10° W 10:38:22 35° NNW 10:41:29 10° NE daylight
05 Sep - 12:13:15 10° NW 12:15:46 20° N 12:18:18 10° NE daylight
05 Sep - 13:50:16 10° NW 13:53:14 29° NNE 13:56:12 10° E daylight
05 Sep - 15:26:51 10° WNW 15:30:09 60° SW 15:33:26 10° SE daylight
06 Sep - 08:10:22 10° S 08:13:05 23° SE 08:15:48 10° E daylight
06 Sep - 09:46:22 10° WSW 09:49:37 51° NNW 09:52:53 10° NE daylight
06 Sep - 11:24:17 10° WNW 11:26:53 21° N 11:29:30 10° NE daylight
06 Sep - 13:01:37 10° NW 13:04:24 24° NNE 13:07:10 10° ENE daylight
06 Sep - 14:38:09 10° WNW 14:41:30 82° NNE 14:44:49 10° ESE daylight
06 Sep - 16:16:04 10° W 16:17:48 14° SW 16:19:31 10° SSW daylight
07 Sep - 07:22:46 10° SSE 07:24:34 14° SE 07:26:23 10° E daylight
07 Sep - 08:57:33 10° WSW 09:00:53 80° NNW 09:04:13 10° NE daylight
07 Sep - 10:35:14 10° WNW 10:37:59 23° NNW 10:40:45 10° NE daylight
07 Sep - 12:12:53 10° NW 12:15:30 21° N 12:18:07 10° ENE daylight
07 Sep - 13:49:29 10° NW 13:52:46 52° NNE 13:56:01 10° ESE daylight
07 Sep - 15:26:36 10° W 15:29:17 23° SW 15:31:57 10° S daylight
08 Sep - 08:08:54 10° SW 08:12:11 62° SE 08:15:29 10° ENE daylight
08 Sep - 09:46:09 10° W 09:49:06 28° NNW 09:52:03 10° NE daylight
08 Sep - 11:24:02 10° NW 11:26:34 20° N 11:29:05 10° NE daylight
08 Sep - 13:00:49 10° NW 13:03:57 36° NNE 13:07:04 10° E daylight
08 Sep - 14:37:34 10° WNW 14:40:41 38° SW 14:43:48 10° SSE daylight
